| time (UTC) | temp F | wind direction | speed knots | gust knots | rain 1hr in | rain 24hr in | rain mn in | humidity % | barometer mb |
| 20260507150344 | 63 | 64 | 1.7 | 5.2 | 0.00 | 0.00 | 0.00 | 23 | 1070.1 |
| 20260507145840 | 62 | 45 | 4.3 | 8.7 | 0.00 | 0.00 | 0.00 | 23 | 1070.1 |
| 20260507145337 | 62 | 38 | 1.7 | 6.1 | 0.00 | 0.00 | 0.00 | 24 | 1069.9 |
| 20260507144834 | 61 | 48 | 2.6 | 7.0 | 0.00 | 0.00 | 0.00 | 24 | 1070.2 |
| 20260507144331 | 61 | 69 | 3.5 | 9.6 | 0.00 | 0.00 | 0.00 | 24 | 1070.1 |
| 20260507143827 | 60 | 46 | 0.9 | 6.1 | 0.00 | 0.00 | 0.00 | 25 | 1070.0 |
| 20260507143325 | 59 | 339 | 2.6 | 8.7 | 0.00 | 0.00 | 0.00 | 25 | 1070.0 |
| 20260507142821 | 60 | 60 | 6.1 | 8.7 | 0.00 | 0.00 | 0.00 | 25 | 1070.0 |
| 20260507142317 | 59 | 3 | 3.5 | 5.2 | 0.00 | 0.00 | 0.00 | 25 | 1070.0 |
| 20260507141814 | 59 | 355 | 5.2 | 7.0 | 0.00 | 0.00 | 0.00 | 25 | 1070.0 |
| 20260507141311 | 58 | 28 | 3.5 | 12.2 | 0.00 | 0.00 | 0.00 | 25 | 1070.0 |
| 20260507140807 | 58 | 2 | 4.3 | 9.6 | 0.00 | 0.00 | 0.00 | 26 | 1070.2 |
| 20260507140304 | 59 | 22 | 7.0 | 9.6 | 0.00 | 0.00 | 0.00 | 25 | 1070.3 |
| 20260507135802 | 58 | 22 | 2.6 | 7.0 | 0.00 | 0.00 | 0.00 | 25 | 1070.5 |
| 20260507135259 | 58 | 352 | 3.5 | 7.0 | 0.00 | 0.00 | 0.00 | 26 | 1070.6 |
| 20260507134755 | 58 | 49 | 6.1 | 9.6 | 0.00 | 0.00 | 0.00 | 26 | 1070.2 |
| 20260507134252 | 57 | 341 | 3.5 | 7.0 | 0.00 | 0.00 | 0.00 | 27 | 1070.5 |
| 20260507133747 | 57 | 64 | 1.7 | 7.0 | 0.00 | 0.00 | 0.00 | 27 | 1070.5 |
| 20260507133244 | 57 | 24 | 3.5 | 7.0 | 0.00 | 0.00 | 0.00 | 27 | 1070.2 |
| 20260507132742 | 57 | 336 | 1.7 | 3.5 | 0.00 | 0.00 | 0.00 | 29 | 1070.3 |
| 20260507132238 | 57 | 54 | 1.7 | 5.2 | 0.00 | 0.00 | 0.00 | 28 | 1070.3 |
| 20260507131735 | 56 | 4 | 7.8 | 8.7 | 0.00 | 0.00 | 0.00 | 30 | 1070.2 |
| 20260507131233 | 56 | 18 | 4.3 | 7.8 | 0.00 | 0.00 | 0.00 | 32 | 1070.1 |
| 20260507130729 | 57 | 68 | 2.6 | 9.6 | 0.00 | 0.00 | 0.00 | 31 | 1070.5 |
| 20260507130227 | 56 | 30 | 3.5 | 7.8 | 0.00 | 0.00 | 0.00 | 32 | 1070.5 |
| 20260507125725 | 56 | 35 | 7.8 | 11.3 | 0.00 | 0.00 | 0.00 | 33 | 1070.3 |
| 20260507125223 | 55 | 21 | 4.3 | 9.6 | 0.00 | 0.00 | 0.00 | 34 | 1070.3 |
| 20260507124719 | 56 | 337 | 4.3 | 9.6 | 0.00 | 0.00 | 0.00 | 34 | 1070.3 |
| 20260507124216 | 56 | 61 | 3.5 | 6.1 | 0.00 | 0.00 | 0.00 | 36 | 1070.5 |
| 20260507123715 | 55 | 65 | 6.1 | 8.7 | 0.00 | 0.00 | 0.00 | 35 | 1070.2 |
| 20260507123212 | 55 | 19 | 7.8 | 9.6 | 0.00 | 0.00 | 0.00 | 36 | 1070.3 |
| 20260507122707 | 55 | 0 | 6.1 | 11.3 | 0.00 | 0.00 | 0.00 | 36 | 1070.5 |
| 20260507122203 | 55 | 357 | 6.1 | 7.8 | 0.00 | 0.00 | 0.00 | 36 | 1070.0 |
| 20260507121659 | 54 | 335 | 7.0 | 11.3 | 0.00 | 0.00 | 0.00 | 36 | 1070.0 |
| 20260507121155 | 54 | 51 | 4.3 | 7.0 | 0.00 | 0.00 | 0.00 | 38 | 1070.2 |
| 20260507120651 | 54 | 324 | 4.3 | 8.7 | 0.00 | 0.00 | 0.00 | 38 | 1070.0 |
| 20260507120148 | 54 | 14 | 3.5 | 5.2 | 0.00 | 0.00 | 0.00 | 38 | 1070.0 |
| 20260507115644 | 54 | 337 | 1.7 | 7.8 | 0.00 | 0.00 | 0.00 | 38 | 1069.9 |
| 20260507115140 | 53 | 358 | 4.3 | 7.0 | 0.00 | 0.00 | 0.00 | 39 | 1070.0 |
| 20260507114636 | 53 | 0 | 2.6 | 7.8 | 0.00 | 0.00 | 0.00 | 40 | 1070.0 |
| 20260507114133 | 53 | 28 | 0.9 | 1.7 | 0.00 | 0.00 | 0.00 | 41 | 1069.9 |
| 20260507113631 | 53 | 350 | 1.7 | 2.6 | 0.00 | 0.00 | 0.00 | 41 | 1070.0 |
| 20260507113127 | 53 | 61 | 0.9 | 2.6 | 0.00 | 0.00 | 0.00 | 41 | 1069.5 |
| 20260507112626 | 53 | 13 | 4.3 | 6.1 | 0.00 | 0.00 | 0.00 | 41 | 1069.4 |
| 20260507112122 | 53 | 317 | 0.9 | 1.7 | 0.00 | 0.00 | 0.00 | 40 | 1069.2 |
| 20260507111619 | 54 | 75 | 0.9 | 1.7 | 0.00 | 0.00 | 0.00 | 39 | 1068.9 |
| 20260507111116 | 54 | 37 | 0.9 | 2.6 | 0.00 | 0.00 | 0.00 | 37 | 1069.0 |
| 20260507110612 | 54 | 5 | 0.9 | 6.1 | 0.00 | 0.00 | 0.00 | 37 | 1068.9 |
| 20260507110109 | 54 | 25 | 0.9 | 2.6 | 0.00 | 0.00 | 0.00 | 37 | 1068.6 |
| 20260507105605 | 53 | 329 | 2.6 | 3.5 | 0.00 | 0.00 | 0.00 | 39 | 1068.5 |
| 20260507105101 | 53 | 334 | 1.7 | 1.7 | 0.00 | 0.00 | 0.00 | 40 | 1068.4 |
| 20260507104559 | 53 | 330 | 0.9 | 2.6 | 0.00 | 0.00 | 0.00 | 40 | 1068.3 |
| 20260507104055 | 53 | 330 | 0.9 | 0.9 | 0.00 | 0.00 | 0.00 | 40 | 1068.5 |
| 20260507103551 | 54 | 337 | 2.6 | 2.6 | 0.00 | 0.00 | 0.00 | 38 | 1068.4 |
| 20260507103049 | 54 | 344 | 4.3 | 5.2 | 0.00 | 0.00 | 0.00 | 39 | 1068.3 |
| 20260507102545 | 55 | 330 | 5.2 | 7.0 | 0.00 | 0.00 | 0.00 | 38 | 1068.3 |
| 20260507102041 | 55 | 359 | 5.2 | 6.1 | 0.00 | 0.00 | 0.00 | 38 | 1068.4 |
| 20260507101536 | 55 | 337 | 5.2 | 6.1 | 0.00 | 0.00 | 0.00 | 38 | 1068.2 |
| 20260507101033 | 55 | 335 | 7.0 | 7.8 | 0.00 | 0.00 | 0.00 | 38 | 1068.1 |
| 20260507100531 | 55 | 346 | 2.6 | 7.0 | 0.00 | 0.00 | 0.00 | 39 | 1068.1 |
| 20260507100029 | 55 | 325 | 7.8 | 9.6 | 0.00 | 0.00 | 0.00 | 39 | 1067.8 |
| 20260507095526 | 55 | 334 | 5.2 | 9.6 | 0.00 | 0.00 | 0.00 | 40 | 1068.0 |
| 20260507095023 | 55 | 355 | 3.5 | 7.8 | 0.00 | 0.00 | 0.00 | 40 | 1068.1 |
| 20260507094519 | 54 | 323 | 4.3 | 6.1 | 0.00 | 0.00 | 0.00 | 43 | 1067.8 |
| 20260507094016 | 54 | 329 | 0.9 | 1.7 | 0.00 | 0.00 | 0.00 | 45 | 1068.1 |
| 20260507093513 | 55 | 356 | 0.9 | 3.5 | 0.00 | 0.00 | 0.00 | 45 | 1067.7 |
| 20260507093012 | 55 | 328 | 3.5 | 3.5 | 0.00 | 0.00 | 0.00 | 44 | 1067.8 |
| 20260507092508 | 55 | 325 | 3.5 | 3.5 | 0.00 | 0.00 | 0.00 | 44 | 1067.8 |
| 20260507092005 | 55 | 343 | 2.6 | 6.1 | 0.00 | 0.00 | 0.00 | 44 | 1067.6 |
| 20260507091502 | 54 | 338 | 3.5 | 5.2 | 0.00 | 0.00 | 0.00 | 45 | 1067.5 |
| 20260507090957 | 54 | 342 | 3.5 | 7.0 | 0.00 | 0.00 | 0.00 | 45 | 1067.8 |
| 20260507090453 | 54 | 304 | 1.7 | 3.5 | 0.00 | 0.00 | 0.00 | 46 | 1067.6 |
| 20260507085950 | 54 | 294 | 1.7 | 2.6 | 0.00 | 0.00 | 0.00 | 47 | 1067.6 |
| 20260507085447 | 54 | 281 | 1.7 | 2.6 | 0.00 | 0.00 | 0.00 | 47 | 1067.5 |
| 20260507084944 | 54 | 302 | 0.9 | 1.7 | 0.00 | 0.00 | 0.00 | 47 | 1067.7 |
| 20260507084441 | 55 | 324 | 1.7 | 3.5 | 0.00 | 0.00 | 0.00 | 46 | 1067.7 |
| 20260507083938 | 55 | 323 | 2.6 | 2.6 | 0.00 | 0.00 | 0.00 | 46 | 1067.4 |
| 20260507083434 | 55 | 333 | 4.3 | 6.1 | 0.00 | 0.00 | 0.00 | 46 | 1067.2 |
| 20260507082931 | 55 | 359 | 1.7 | 2.6 | 0.00 | 0.00 | 0.00 | 46 | 1067.2 |
| 20260507082427 | 55 | 349 | 1.7 | 3.5 | 0.00 | 0.00 | 0.00 | 46 | 1067.0 |
| 20260507081924 | 55 | 339 | 4.3 | 5.2 | 0.00 | 0.00 | 0.00 | 46 | 1067.0 |
| 20260507081420 | 54 | 338 | 4.3 | 7.0 | 0.00 | 0.00 | 0.00 | 47 | 1066.9 |
| 20260507080917 | 53 | 19 | 3.5 | 3.5 | 0.00 | 0.00 | 0.00 | 49 | 1066.6 |
| 20260507080413 | 53 | 238 | 0.0 | 0.0 | 0.00 | 0.00 | 0.00 | 50 | 1066.9 |
| 20260507075908 | 54 | 240 | 0.0 | 0.9 | 0.00 | 0.00 | 0.00 | 49 | 1067.0 |
| 20260507075405 | 54 | 122 | 0.9 | 2.6 | 0.00 | 0.00 | 0.00 | 49 | 1066.9 |
| 20260507074901 | 54 | 338 | 2.6 | 2.6 | 0.00 | 0.00 | 0.00 | 48 | 1066.4 |
| 20260507074358 | 55 | 68 | 3.5 | 6.1 | 0.00 | 0.00 | 0.00 | 47 | 1066.5 |
| 20260507073856 | 55 | 351 | 1.7 | 2.6 | 0.00 | 0.00 | 0.00 | 47 | 1066.4 |
| 20260507073352 | 55 | 348 | 2.6 | 7.0 | 0.00 | 0.00 | 0.00 | 47 | 1066.7 |
| 20260507072849 | 55 | 5 | 0.9 | 1.7 | 0.00 | 0.00 | 0.00 | 48 | 1066.4 |
| 20260507072347 | 55 | 51 | 2.6 | 6.1 | 0.00 | 0.00 | 0.00 | 47 | 1066.3 |
| 20260507071844 | 55 | 6 | 2.6 | 3.5 | 0.00 | 0.00 | 0.00 | 47 | 1066.3 |
| 20260507071341 | 55 | 85 | 1.7 | 3.5 | 0.00 | 0.00 | 0.00 | 46 | 1066.0 |
| 20260507070837 | 55 | 324 | 3.5 | 7.8 | 0.00 | 0.00 | 0.00 | 46 | 1065.7 |
| 20260507070335 | 55 | 14 | 4.3 | 6.1 | 0.00 | 0.00 | 0.00 | 47 | 1065.5 |
| 20260507065831 | 55 | 50 | 2.6 | 6.1 | 0.00 | 0.00 | 0.00 | 47 | 1065.6 |
| 20260507065328 | 56 | 295 | 3.5 | 7.8 | 0.00 | 0.00 | 0.00 | 46 | 1065.8 |
| 20260507064825 | 56 | 352 | 7.0 | 8.7 | 0.00 | 0.00 | 0.00 | 45 | 1065.8 |
| 20260507064324 | 57 | 0 | 7.0 | 9.6 | 0.00 | 0.00 | 0.00 | 44 | 1065.7 |
| 20260507063821 | 57 | 337 | 7.8 | 7.8 | 0.00 | 0.00 | 0.00 | 45 | 1066.0 |
| 20260507063318 | 57 | 353 | 2.6 | 8.7 | 0.00 | 0.00 | 0.00 | 44 | 1066.0 |
| 20260507062814 | 57 | 302 | 5.2 | 9.6 | 0.00 | 0.00 | 0.00 | 44 | 1066.0 |
| 20260507062312 | 56 | 358 | 7.8 | 9.6 | 0.00 | 0.00 | 0.00 | 45 | 1065.9 |
| 20260507061810 | 56 | 357 | 5.2 | 11.3 | 0.00 | 0.00 | 0.00 | 45 | 1065.6 |
| 20260507061307 | 55 | 6 | 7.8 | 9.6 | 0.00 | 0.00 | 0.00 | 46 | 1065.9 |
| 20260507060806 | 55 | 20 | 2.6 | 3.5 | 0.00 | 0.00 | 0.00 | 48 | 1066.0 |
| 20260507060302 | 55 | 61 | 1.7 | 3.5 | 0.00 | 0.00 | 0.00 | 47 | 1065.9 |
| 20260507055758 | 56 | 19 | 0.9 | 1.7 | 0.00 | 0.00 | 0.00 | 47 | 1066.0 |
| 20260507055253 | 56 | 338 | 1.7 | 3.5 | 0.00 | 0.00 | 0.00 | 45 | 1065.9 |
| 20260507054750 | 57 | 335 | 3.5 | 7.8 | 0.00 | 0.00 | 0.00 | 45 | 1065.9 |
| 20260507054247 | 57 | 350 | 3.5 | 8.7 | 0.00 | 0.00 | 0.00 | 44 | 1066.1 |
| 20260507053744 | 56 | 313 | 2.6 | 3.5 | 0.00 | 0.00 | 0.00 | 46 | 1065.8 |
| 20260507053242 | 56 | 32 | 0.9 | 5.2 | 0.00 | 0.00 | 0.00 | 45 | 1065.7 |
| 20260507052741 | 57 | 11 | 2.6 | 6.1 | 0.00 | 0.00 | 0.00 | 44 | 1065.7 |
| 20260507052236 | 57 | 336 | 4.3 | 5.2 | 0.00 | 0.00 | 0.00 | 44 | 1065.7 |
| 20260507051735 | 57 | 323 | 3.5 | 5.2 | 0.00 | 0.00 | 0.00 | 44 | 1065.5 |
| 20260507051231 | 58 | 346 | 3.5 | 6.1 | 0.00 | 0.00 | 0.00 | 43 | 1065.3 |
| 20260507050728 | 57 | 324 | 4.3 | 8.7 | 0.00 | 0.00 | 0.00 | 44 | 1065.3 |
| 20260507050225 | 57 | 336 | 5.2 | 6.1 | 0.00 | 0.00 | 0.00 | 44 | 1065.6 |
| 20260507045722 | 56 | 335 | 2.6 | 3.5 | 0.00 | 0.00 | 0.00 | 45 | 1065.2 |
| 20260507045218 | 56 | 339 | 1.7 | 3.5 | 0.00 | 0.00 | 0.00 | 46 | 1065.2 |
| 20260507044715 | 55 | 9 | 1.7 | 2.6 | 0.00 | 0.00 | 0.00 | 46 | 1065.5 |
| 20260507044212 | 56 | 14 | 0.9 | 0.9 | 0.00 | 0.00 | 0.00 | 46 | 1065.3 |
| 20260507043708 | 56 | 345 | 0.9 | 2.6 | 0.00 | 0.00 | 0.00 | 45 | 1065.1 |
| 20260507043205 | 56 | 295 | 1.7 | 2.6 | 0.00 | 0.00 | 0.00 | 45 | 1065.2 |
| 20260507042701 | 56 | 345 | 0.0 | 0.9 | 0.00 | 0.00 | 0.00 | 45 | 1065.0 |
| 20260507042156 | 55 | 284 | 1.7 | 2.6 | 0.00 | 0.00 | 0.00 | 45 | 1065.2 |
| 20260507041654 | 55 | 282 | 0.0 | 1.7 | 0.00 | 0.00 | 0.00 | 44 | 1065.0 |
| 20260507041150 | 55 | 237 | 0.0 | 0.0 | 0.00 | 0.00 | 0.00 | 45 | 1064.9 |
| 20260507040647 | 56 | 212 | 0.0 | 0.9 | 0.00 | 0.00 | 0.00 | 44 | 1064.7 |
| 20260507040143 | 56 | 142 | 0.0 | 0.9 | 0.00 | 0.00 | 0.00 | 44 | 1064.3 |
| 20260507035639 | 57 | 145 | 0.9 | 0.9 | 0.00 | 0.00 | 0.00 | 43 | 1064.7 |
| 20260507035135 | 58 | 300 | 0.0 | 0.0 | 0.00 | 0.00 | 0.00 | 41 | 1064.6 |
| 20260507034633 | 58 | 250 | 0.9 | 0.9 | 0.00 | 0.00 | 0.00 | 41 | 1064.7 |
| 20260507034130 | 58 | 67 | 0.9 | 1.7 | 0.00 | 0.00 | 0.00 | 41 | 1064.6 |
| 20260507033628 | 58 | 16 | 2.6 | 5.2 | 0.00 | 0.00 | 0.00 | 41 | 1064.7 |
| 20260507033125 | 59 | 359 | 5.2 | 6.1 | 0.00 | 0.00 | 0.00 | 40 | 1064.6 |
| 20260507032623 | 59 | 19 | 0.9 | 2.6 | 0.00 | 0.00 | 0.00 | 40 | 1064.2 |
| 20260507032118 | 59 | 341 | 4.3 | 7.0 | 0.00 | 0.00 | 0.00 | 40 | 1064.7 |
| 20260507031615 | 59 | 358 | 1.7 | 2.6 | 0.00 | 0.00 | 0.00 | 40 | 1064.6 |
| 20260507031112 | 59 | 318 | 4.3 | 7.8 | 0.00 | 0.00 | 0.00 | 40 | 1064.7 |
| 20260507030609 | 59 | 345 | 2.6 | 2.6 | 0.00 | 0.00 | 0.00 | 40 | 1064.4 |
| 20260507030107 | 59 | 15 | 4.3 | 6.1 | 0.00 | 0.00 | 0.00 | 39 | 1064.7 |
| 20260507025603 | 58 | 50 | 2.6 | 5.2 | 0.00 | 0.00 | 0.00 | 41 | 1064.3 |
| 20260507025100 | 59 | 316 | 3.5 | 3.5 | 0.00 | 0.00 | 0.00 | 41 | 1064.0 |
| 20260507024558 | 59 | 156 | 0.0 | 0.9 | 0.00 | 0.00 | 0.00 | 40 | 1063.8 |
| 20260507024055 | 60 | 98 | 0.9 | 2.6 | 0.00 | 0.00 | 0.00 | 40 | 1063.9 |
| 20260507023550 | 60 | 322 | 1.7 | 1.7 | 0.00 | 0.00 | 0.00 | 39 | 1063.8 |
| 20260507023049 | 60 | 124 | 1.7 | 5.2 | 0.00 | 0.00 | 0.00 | 39 | 1063.6 |
| 20260507022545 | 61 | 130 | 0.0 | 1.7 | 0.00 | 0.00 | 0.00 | 39 | 1063.8 |
| 20260507022040 | 61 | 135 | 0.9 | 1.7 | 0.00 | 0.00 | 0.00 | 38 | 1063.4 |
| 20260507021537 | 61 | 85 | 1.7 | 2.6 | 0.00 | 0.00 | 0.00 | 38 | 1063.8 |
| 20260507021033 | 62 | 111 | 0.0 | 0.0 | 0.00 | 0.00 | 0.00 | 37 | 1063.8 |
| 20260507020531 | 63 | 11 | 0.9 | 3.5 | 0.00 | 0.00 | 0.00 | 36 | 1063.8 |
| 20260507020027 | 63 | 78 | 0.0 | 0.9 | 0.00 | 0.00 | 0.00 | 37 | 1063.5 |
| 20260507015526 | 63 | 98 | 0.9 | 1.7 | 0.00 | 0.00 | 0.00 | 37 | 1063.4 |
| 20260507015023 | 64 | 341 | 3.5 | 5.2 | 0.00 | 0.00 | 0.00 | 36 | 1063.2 |
| 20260507014519 | 64 | 6 | 3.5 | 7.0 | 0.00 | 0.00 | 0.00 | 35 | 1063.0 |
| 20260507014015 | 64 | 283 | 5.2 | 6.1 | 0.00 | 0.00 | 0.00 | 35 | 1062.9 |
| 20260507013512 | 64 | 271 | 4.3 | 5.2 | 0.00 | 0.00 | 0.00 | 35 | 1062.7 |
| 20260507013009 | 64 | 352 | 0.0 | 2.6 | 0.00 | 0.00 | 0.00 | 35 | 1062.4 |
| 20260507012506 | 65 | 159 | 3.5 | 6.1 | 0.00 | 0.00 | 0.00 | 34 | 1062.4 |
| 20260507012002 | 66 | 125 | 7.0 | 11.3 | 0.00 | 0.00 | 0.00 | 31 | 1062.3 |
| 20260507011500 | 67 | 359 | 2.6 | 12.2 | 0.00 | 0.00 | 0.00 | 25 | 1062.1 |
| 20260507010955 | 70 | 138 | 5.2 | 9.6 | 0.00 | 0.00 | 0.00 | 16 | 1061.4 |
| 20260507010450 | 69 | 123 | 5.2 | 9.6 | 0.00 | 0.00 | 0.00 | 15 | 1061.3 |
| 20260507005947 | 70 | 15 | 1.7 | 1.7 | 0.00 | 0.00 | 0.00 | 16 | 1061.0 |
| 20260507005444 | 71 | 58 | 0.9 | 2.6 | 0.00 | 0.00 | 0.00 | 14 | 1060.8 |
| 20260507004940 | 72 | 106 | 0.0 | 2.6 | 0.00 | 0.00 | 0.00 | 13 | 1060.8 |
| 20260507004437 | 73 | 107 | 3.5 | 6.1 | 0.00 | 0.00 | 0.00 | 13 | 1060.1 |
| 20260507003935 | 72 | 64 | 2.6 | 3.5 | 0.00 | 0.00 | 0.00 | 13 | 1060.4 |
| 20260507003430 | 73 | 177 | 1.7 | 3.5 | 0.00 | 0.00 | 0.00 | 13 | 1060.4 |
| 20260507002925 | 73 | 197 | 1.7 | 9.6 | 0.00 | 0.00 | 0.00 | 13 | 1060.0 |
| 20260507002422 | 74 | 307 | 7.0 | 13.9 | 0.00 | 0.00 | 0.00 | 12 | 1060.1 |
| 20260507001919 | 74 | 42 | 7.0 | 9.6 | 0.00 | 0.00 | 0.00 | 12 | 1060.2 |
| 20260507001416 | 74 | 314 | 0.9 | 8.7 | 0.00 | 0.00 | 0.00 | 12 | 1060.4 |
| 20260507000914 | 73 | 278 | 21.7 | 28.7 | 0.00 | 0.00 | 0.00 | 12 | 1060.1 |
| 20260507000408 | 71 | 140 | 3.5 | 5.2 | 0.00 | 0.00 | 0.00 | 14 | 1060.1 |
| 20260506235905 | 70 | 121 | 1.7 | 3.5 | 0.00 | 0.00 | 0.00 | 15 | 1059.8 |
| 20260506235402 | 72 | 58 | 0.9 | 1.7 | 0.00 | 0.00 | 0.00 | 14 | 1059.8 |
| 20260506234857 | 71 | 160 | 0.0 | 0.0 | 0.00 | 0.00 | 0.00 | 14 | 1060.0 |
| 20260506234355 | 71 | 211 | 2.6 | 6.1 | 0.00 | 0.00 | 0.00 | 14 | 1059.9 |
| 20260506233853 | 72 | 239 | 0.0 | 1.7 | 0.00 | 0.00 | 0.00 | 14 | 1060.1 |
| 20260506233349 | 71 | 153 | 5.2 | 7.0 | 0.00 | 0.00 | 0.00 | 14 | 1060.0 |
| 20260506232846 | 71 | 146 | 2.6 | 5.2 | 0.00 | 0.00 | 0.00 | 15 | 1060.2 |
| 20260506232342 | 72 | 122 | 5.2 | 7.8 | 0.00 | 0.00 | 0.00 | 14 | 1060.2 |
| 20260506231838 | 72 | 161 | 1.7 | 7.0 | 0.00 | 0.00 | 0.00 | 14 | 1060.2 |
| 20260506231336 | 72 | 135 | 0.0 | 0.9 | 0.00 | 0.00 | 0.00 | 14 | 1060.7 |
| 20260506230833 | 72 | 119 | 3.5 | 6.1 | 0.00 | 0.00 | 0.00 | 14 | 1060.8 |
| 20260506230330 | 73 | 117 | 1.7 | 2.6 | 0.00 | 0.00 | 0.00 | 13 | 1060.5 |
| 20260506225826 | 74 | 343 | 4.3 | 7.0 | 0.00 | 0.00 | 0.00 | 12 | 1060.1 |
| 20260506225323 | 74 | 269 | 7.0 | 13.0 | 0.00 | 0.00 | 0.00 | 12 | 1060.7 |
| 20260506224820 | 72 | 33 | 10.4 | 14.8 | 0.00 | 0.00 | 0.00 | 13 | 1060.8 |
| 20260506224318 | 73 | 132 | 0.9 | 0.9 | 0.00 | 0.00 | 0.00 | 13 | 1060.6 |
| 20260506223814 | 73 | 282 | 3.5 | 13.9 | 0.00 | 0.00 | 0.00 | 13 | 1060.5 |
| 20260506223309 | 73 | 340 | 2.6 | 13.0 | 0.00 | 0.00 | 0.00 | 13 | 1060.7 |
| 20260506222806 | 73 | 240 | 5.2 | 9.6 | 0.00 | 0.00 | 0.00 | 12 | 1060.8 |
| 20260506222305 | 74 | 239 | 9.6 | 13.0 | 0.00 | 0.00 | 0.00 | 12 | 1060.8 |
| 20260506221800 | 74 | 235 | 7.8 | 23.5 | 0.00 | 0.00 | 0.00 | 12 | 1060.7 |
| 20260506221257 | 74 | 241 | 12.2 | 14.8 | 0.00 | 0.00 | 0.00 | 12 | 1060.7 |
| 20260506220755 | 74 | 327 | 7.0 | 29.5 | 0.00 | 0.00 | 0.00 | 12 | 1060.6 |
| 20260506220255 | 74 | 251 | 7.8 | 20.0 | 0.00 | 0.00 | 0.00 | 12 | 1060.6 |
| 20260506215752 | 74 | 264 | 17.4 | 22.6 | 0.00 | 0.00 | 0.00 | 12 | 1061.0 |
| 20260506215248 | 74 | 311 | 13.9 | 19.1 | 0.00 | 0.00 | 0.00 | 12 | 1061.0 |
| 20260506214744 | 74 | 203 | 1.7 | 18.2 | 0.00 | 0.00 | 0.00 | 12 | 1061.2 |
| 20260506214242 | 74 | 293 | 14.8 | 20.0 | 0.00 | 0.00 | 0.00 | 12 | 1061.2 |
| 20260506213740 | 74 | 255 | 12.2 | 14.8 | 0.00 | 0.00 | 0.00 | 12 | 1061.3 |
| 20260506213237 | 75 | 231 | 6.1 | 7.8 | 0.00 | 0.00 | 0.00 | 12 | 1061.2 |
| 20260506212734 | 75 | 337 | 3.5 | 7.8 | 0.00 | 0.00 | 0.00 | 12 | 1061.5 |
| 20260506212230 | 75 | 161 | 6.1 | 11.3 | 0.00 | 0.00 | 0.00 | 12 | 1061.5 |
| 20260506211725 | 75 | 279 | 5.2 | 7.0 | 0.00 | 0.00 | 0.00 | 12 | 1061.3 |
| 20260506211221 | 75 | 305 | 3.5 | 7.8 | 0.00 | 0.00 | 0.00 | 12 | 1061.2 |
| 20260506210719 | 76 | 312 | 8.7 | 16.5 | 0.00 | 0.00 | 0.00 | 11 | 1061.5 |
| 20260506210216 | 76 | 282 | 7.0 | 15.6 | 0.00 | 0.00 | 0.00 | 11 | 1061.5 |
| 20260506205713 | 76 | 268 | 6.1 | 14.8 | 0.00 | 0.00 | 0.00 | 11 | 1061.4 |
| 20260506205208 | 76 | 288 | 7.0 | 12.2 | 0.00 | 0.00 | 0.00 | 11 | 1061.4 |
| 20260506204705 | 77 | 314 | 7.8 | 9.6 | 0.00 | 0.00 | 0.00 | 11 | 1061.2 |
| 20260506204202 | 77 | 1 | 6.1 | 11.3 | 0.00 | 0.00 | 0.00 | 10 | 1061.2 |
| 20260506203700 | 77 | 313 | 8.7 | 18.2 | 0.00 | 0.00 | 0.00 | 10 | 1061.0 |
| 20260506203157 | 77 | 0 | 9.6 | 19.1 | 0.00 | 0.00 | 0.00 | 10 | 1060.9 |
| 20260506202655 | 78 | 287 | 10.4 | 19.1 | 0.00 | 0.00 | 0.00 | 10 | 1060.8 |
| 20260506202150 | 78 | 297 | 11.3 | 21.7 | 0.00 | 0.00 | 0.00 | 10 | 1060.8 |
| 20260506201648 | 78 | 262 | 15.6 | 21.7 | 0.00 | 0.00 | 0.00 | 10 | 1060.7 |
| 20260506201144 | 78 | 262 | 12.2 | 14.8 | 0.00 | 0.00 | 0.00 | 9 | 1061.0 |
| 20260506200641 | 78 | 288 | 4.3 | 11.3 | 0.00 | 0.00 | 0.00 | 9 | 1060.9 |
| 20260506200138 | 79 | 295 | 14.8 | 22.6 | 0.00 | 0.00 | 0.00 | 9 | 1060.8 |
| 20260506195635 | 79 | 306 | 11.3 | 18.2 | 0.00 | 0.00 | 0.00 | 9 | 1060.8 |
| 20260506195131 | 79 | 268 | 13.0 | 23.5 | 0.00 | 0.00 | 0.00 | 8 | 1060.5 |
| 20260506194629 | 79 | 279 | 9.6 | 12.2 | 0.00 | 0.00 | 0.00 | 8 | 1060.2 |
| 20260506194124 | 79 | 279 | 7.0 | 14.8 | 0.00 | 0.00 | 0.00 | 8 | 1060.4 |
| 20260506193623 | 80 | 298 | 11.3 | 27.8 | 0.00 | 0.00 | 0.00 | 8 | 1060.1 |
| 20260506193119 | 80 | 255 | 7.8 | 20.9 | 0.00 | 0.00 | 0.00 | 8 | 1060.1 |
| 20260506192616 | 80 | 304 | 8.7 | 19.1 | 0.00 | 0.00 | 0.00 | 8 | 1059.9 |
| 20260506192112 | 80 | 295 | 8.7 | 21.7 | 0.00 | 0.00 | 0.00 | 8 | 1060.0 |
| 20260506191609 | 81 | 287 | 9.6 | 27.8 | 0.00 | 0.00 | 0.00 | 8 | 1059.9 |
| 20260506191105 | 81 | 322 | 1.7 | 6.1 | 0.00 | 0.00 | 0.00 | 8 | 1059.7 |
| 20260506190603 | 81 | 4 | 7.0 | 14.8 | 0.00 | 0.00 | 0.00 | 7 | 1059.7 |
| 20260506190059 | 81 | 289 | 15.6 | 25.2 | 0.00 | 0.00 | 0.00 | 8 | 1059.6 |
| 20260506185556 | 81 | 292 | 4.3 | 11.3 | 0.00 | 0.00 | 0.00 | 10 | 1059.6 |
| 20260506185053 | 80 | 286 | 3.5 | 14.8 | 0.00 | 0.00 | 0.00 | 11 | 1059.9 |
| 20260506184550 | 76 | 304 | 2.6 | 3.5 | 0.00 | 0.00 | 0.00 | 44 | 1059.7 |
| 20260506184047 | 76 | 267 | 0.9 | 0.9 | 0.00 | 0.00 | 0.00 | 45 | 1059.2 |
| 20260506183543 | 75 | 160 | 0.0 | 0.0 | 0.00 | 0.00 | 0.00 | 47 | 1059.3 |
| 20260506183040 | 74 | 148 | 0.9 | 2.6 | 0.00 | 0.00 | 0.00 | 48 | 1059.4 |
| 20260506182537 | 75 | 135 | 0.9 | 2.6 | 0.00 | 0.00 | 0.00 | 49 | 1059.1 |
| 20260506182035 | 75 | 116 | 0.9 | 2.6 | 0.00 | 0.00 | 0.00 | 49 | 1059.2 |
| 20260506181532 | 77 | 109 | 0.0 | 0.9 | 0.00 | 0.00 | 0.00 | 47 | 1059.4 |
| 20260506181029 | 75 | 107 | 0.0 | 0.9 | 0.00 | 0.00 | 0.00 | 47 | 1059.4 |
| 20260506180525 | 76 | 136 | 0.9 | 1.7 | 0.00 | 0.00 | 0.00 | 47 | 1059.3 |
| 20260506180022 | 75 | 174 | 0.9 | 1.7 | 0.00 | 0.00 | 0.00 | 49 | 1059.2 |
| 20260506175519 | 73 | 194 | 0.9 | 2.6 | 0.00 | 0.00 | 0.00 | 52 | 1059.2 |
| 20260506175015 | 73 | 119 | 0.0 | 1.7 | 0.00 | 0.00 | 0.00 | 51 | 1059.8 |
| 20260506174514 | 74 | 355 | 0.9 | 2.6 | 0.00 | 0.00 | 0.00 | 50 | 1059.4 |
| 20260506174009 | 74 | 280 | 0.0 | 1.7 | 0.00 | 0.00 | 0.00 | 51 | 1059.6 |
| 20260506173508 | 73 | 140 | 0.0 | 1.7 | 0.00 | 0.00 | 0.00 | 52 | 1059.9 |
| 20260506173004 | 76 | 213 | 2.6 | 3.5 | 0.00 | 0.00 | 0.00 | 50 | 1059.9 |
| 20260506172502 | 73 | 97 | 0.9 | 1.7 | 0.00 | 0.00 | 0.00 | 50 | 1059.9 |
| 20260506171957 | 73 | 138 | 2.6 | 3.5 | 0.00 | 0.00 | 0.00 | 53 | 1059.8 |
| 20260506171455 | 74 | 277 | 3.5 | 5.2 | 0.00 | 0.00 | 0.00 | 51 | 1060.0 |
| 20260506170953 | 72 | 99 | 1.7 | 1.7 | 0.00 | 0.00 | 0.00 | 52 | 1059.8 |
| 20260506170449 | 72 | 136 | 0.0 | 2.6 | 0.00 | 0.00 | 0.00 | 55 | 1059.9 |
| 20260506165947 | 72 | 90 | 1.7 | 3.5 | 0.00 | 0.00 | 0.00 | 54 | 1059.9 |
| 20260506165446 | 71 | 106 | 1.7 | 3.5 | 0.00 | 0.00 | 0.00 | 55 | 1059.8 |
| 20260506164942 | 72 | 88 | 2.6 | 5.2 | 0.00 | 0.00 | 0.00 | 54 | 1059.9 |
| 20260506164439 | 71 | 129 | 2.6 | 2.6 | 0.00 | 0.00 | 0.00 | 55 | 1060.5 |
| 20260506163936 | 71 | 117 | 2.6 | 3.5 | 0.00 | 0.00 | 0.00 | 54 | 1060.5 |
| 20260506163431 | 71 | 100 | 3.5 | 5.2 | 0.00 | 0.00 | 0.00 | 55 | 1060.8 |
| 20260506162926 | 70 | 123 | 0.9 | 1.7 | 0.00 | 0.00 | 0.00 | 56 | 1060.6 |
| 20260506162424 | 72 | 304 | 1.7 | 2.6 | 0.00 | 0.00 | 0.00 | 53 | 1060.4 |
| 20260506161921 | 73 | 96 | 2.6 | 3.5 | 0.00 | 0.00 | 0.00 | 52 | 1060.6 |
| 20260506161420 | 69 | 114 | 0.0 | 0.0 | 0.00 | 0.00 | 0.00 | 56 | 1060.5 |
| 20260506160917 | 70 | 94 | 0.9 | 7.0 | 0.00 | 0.00 | 0.00 | 56 | 1060.6 |
| 20260506160414 | 70 | 104 | 5.2 | 6.1 | 0.00 | 0.00 | 0.00 | 57 | 1060.2 |
| 20260506155912 | 70 | 110 | 1.7 | 3.5 | 0.00 | 0.00 | 0.00 | 56 | 1060.9 |
| 20260506155409 | 70 | 203 | 0.9 | 1.7 | 0.00 | 0.00 | 0.00 | 55 | 1060.5 |
| 20260506153530 | 69 | 7 | 1.7 | 1.7 | 0.00 | 0.00 | 0.00 | 57 | 1061.3 |
| 20260506153028 | 70 | 111 | 0.9 | 3.5 | 0.00 | 0.00 | 0.00 | 56 | 1061.2 |
| 20260506152525 | 69 | 138 | 0.9 | 1.7 | 0.00 | 0.00 | 0.00 | 57 | 1061.6 |
| 20260506152023 | 71 | 160 | 2.6 | 3.5 | 0.00 | 0.00 | 0.00 | 56 | 1061.4 |
| 20260506151520 | 71 | 74 | 1.7 | 1.7 | 0.00 | 0.00 | 0.00 | 53 | 1061.7 |
| 20260506151017 | 71 | 357 | 1.7 | 2.6 | 0.00 | 0.00 | 0.00 | 55 | 1061.6 |
| 20260506150513 | 71 | 99 | 3.5 | 6.1 | 0.00 | 0.00 | 0.00 | 56 | 1061.5 |